User: anonymous   Login
Location: Caltech
(34.1382°N, 118.1253°W)
Time: 15:01:08
(UTC-07:00)
Language:

Gbstr 26 Del rocket - Orbit

View from above orbital plane
View from above orbital plane
View from above satellite
View from above satellite

Ground track
Ground track

The orbit data is extracted from the following two-line orbital elements,

1 25876U 99041E   17081.85391523 +.00000179 +00000-0 +72430-4 0  9991
2 25876 051.7637 297.4594 0532233 136.3897 228.0399 14.04006300902477
Epoch (UTC): 22 March 2017 20:29:38
Eccentricity: 0.0532233
inclination: 51.7637°
perigee height: 493 km
apogee height: 1266 km
right ascension of ascending node: 297.4594°
argument of perigee: 136.3897°
revolutions per day: 14.04006300
mean anomaly at epoch: 228.0399°
orbit number at epoch: 90247

The dashed part of the orbit path shows where the satellite is in the earth's shadow,  

DLR